Miscellaneous Local Product
Issued by NWS Hastings, NE

Home | Current Version | Previous Version | Text Only | Print | Product List | Glossary Off
Versions: 1 2 3 4 5 6 7 8 9 10 11 12 13 14 15 16 17 18 19 20 21 22 23 24 25 26 27 28 29 30 31 32 33 34 35 36 37 38 39 40 41 42 43 44 45 46 47 48 49 50

000
AXUS43 KGID 310902
MISGRI

GID CWA HOURLY WEATHER ROUNDUP
NATIONAL WEATHER SERVICE HASTINGS NE
400 AM CDT SUN AUG 31 2014

NOTE: "FAIR" INDICATES FEW OR NO CLOUDS BELOW 12,000 FEET WITH NO
SIGNIFICANT WEATHER AND/OR OBSTRUCTIONS TO VISIBILITY.

...SOUTH CENTRAL NEBRASKA...

CITY           SKY/WX    TMP DP  RH WIND       PRES   REMARKS
GRAND ISLAND   PTCLDY    67  61  81 S9        29.80F
HASTINGS       MOCLDY    69  58  67 S5        29.81F
KEARNEY        PTCLDY    68  59  73 S10       29.81F
ORD            MOCLDY    65  61  87 SE3       29.78F
YORK           CLEAR     66 N/A N/A S8        29.81F
AURORA         CLEAR     66  63  89 S7        29.80F
LEXINGTON      PTCLDY    71  58  65 S14       29.78F
HOLDREGE       LGT RAIN  68  58  72 S6        29.81F
HEBRON         CLEAR     64  59  85 CALM      29.82S

...NEBRASKA PANHANDLE...

CITY           SKY/WX    TMP DP  RH WIND       PRES   REMARKS
CHADRON        CLEAR     55  52  89 W8        29.78F
ALLIANCE       CLEAR     55  50  83 SW3       29.82F
SCOTTSBLUFF    PTCLDY    56  52  86 CALM      29.84F
SIDNEY         PTCLDY    56  48  74 SW3       29.87F

...WESTERN AND NORTH CENTRAL NEBRASKA...

CITY           SKY/WX    TMP DP  RH WIND       PRES   REMARKS
VALENTINE      CLOUDY    72  54  53 NW9       29.74S
AINSWORTH      CLOUDY    67  58  73 S6        29.72F
ONEILL         PTCLDY    67  64  89 S5        29.76R
BROKEN BOW     PTCLDY    66  58  75 SE7       29.79F
IMPERIAL       MOCLDY    66  54  65 S6        29.81S
NORTH PLATTE   CLOUDY    65  57  75 SE5       29.78F
MCCOOK         CLOUDY    75  56  51 SW14      29.81F

...EASTERN NEBRASKA...

CITY           SKY/WX    TMP DP  RH WIND       PRES   REMARKS
NORFOLK        CLEAR     70  62  76 S17       29.76F
SO SIOUX CITY  CLEAR     65  63  93 SE7       29.78F
TEKAMAH        CLEAR     64  62  93 SE5       29.80F
COLUMBUS       CLEAR     70  61  73 S10       29.80F
ALBION         CLEAR     65  61  87 CALM      29.81R
OMAHA EPPLEY   CLEAR     70  65  84 S12       29.82F
OFFUTT AFB     CLEAR     68  68 100 E6        29.83F
MILLARD        CLEAR     69  66  89 SE5       29.82F
LINCOLN        CLEAR     68  63  84 S9        29.82F
NEBRASKA CITY  CLEAR     68  68 100 S9        29.84F
BEATRICE       CLEAR     69  64  84 S7        29.83S
FALLS CITY     CLEAR     68  65  90 SE6       29.84F

...NORTHERN KANSAS...

CITY           SKY/WX    TMP DP  RH WIND       PRES   REMARKS
GOODLAND       MOCLDY    61  56  83 SE8       29.87S
HILL CITY      MOCLDY    74  56  53 SW13      29.87R
NORTON         MOSUNNY   70  54  56 S12       29.82F
PHILLIPSBURG   RAIN      70  61  73 SW7       29.85R
SMITH CENTER   RAIN      66  61  82 SE12      29.82S
BELOIT         CLEAR     70  61  73 SE3       29.82R
HAYS           CLOUDY    70  61  73 E8        29.85F
RUSSELL        NOT AVBL
CONCORDIA      CLEAR     72  62  71 S16       29.82F
SALINA         CLEAR     74  65  73 S9        29.83F
TOPEKA         CLEAR     70  66  87 CALM      29.86F



USA.gov is the U.S. government's official web portal to all federal, state and local government web resources and services.